Skip Page Navigation
NASA JPL Caltech
NASA Logo - Jet Propulsion Laboratory + View the NASA Portal
+ Center for Near-Earth Object Studies
JPL Home Earth Solar System Stars & Galaxies Technology
JPL Solar System Dynamics
BODIES ORBITS EPHEMERIDES TOOLS PHYSICAL DATA DISCOVERY FAQ SITE MAP
IMPORTANT: The SSD Announcement email list is now available. Major changes are coming in the near future, including possible hostname and/or URL changes. To be notified of such changes, subscribe to this email list.

Please visit this page for more details.


JPL Small-Body Database Browser
Search: [ help ]  
52607 (1997 TX16)
Classification: Main-belt Asteroid          SPK-ID: 2052607
Ephemeris | Orbit Diagram | Orbital Elements | Mission Design | Physical Parameters | Discovery Circumstances ]

[ show orbit diagram ]
Orbital Elements at Epoch 2459000.5 (2020-May-31.0) TDB
Reference: JPL 27 (heliocentric ecliptic J2000)
 Element Value Uncertainty (1-sigma)   Units 
e .02991894440529825 6.8764e-08  
a 2.516432512934783 1.1202e-08 au
q 2.441143508480602 1.7334e-07 au
i 11.20323180554446 5.8372e-06 deg
node 48.05020035010798 2.1262e-05 deg
peri 123.0051123576171 0.00010017 deg
M 113.3805742306655 9.4523e-05 deg
tp 2458541.288759705555
(2019-Feb-26.78875971)
0.00038327 TDB
period 1458.063231975481
3.99
9.7356e-06
2.665e-08
d
yr
n .2469028723207347 1.6486e-09 deg/d
Q 2.591721517388964 1.1537e-08 au
  Orbit Determination Parameters
   # obs. used (total)      1496  
   data-arc span      7931 days (21.71 yr)  
   first obs. used      1997-10-07  
   last obs. used      2019-06-25  
   planetary ephem.      DE431  
   SB-pert. ephem.      SB431-N16  
   condition code      0  
   norm. resid. RMS      .47829  
   source      ORB  
   producer      Otto Matic  
   solution date      2020-Feb-23 10:31:31  

Additional Information
 Earth MOID = 1.45457 au 
 Jupiter MOID = 2.38769 au 
 T_jup = 3.431 
[ hide covariance matrix ]
Orbital Elements at Epoch 2456667.5 (2014-Jan-10.0) TDB
Reference: JPL 27 (heliocentric ecliptic J2000)
 Element Value Uncertainty (1-sigma)   Units 
e .0307213122156507 6.7689e-08  
q 2.437624614901911 1.7063e-07 au
tp 2457079.283404472175
(2015-Feb-25.78340447)
0.00038258 TDB
node 48.15552262769097 2.1235e-05 deg
peri 121.6621314062423 9.9873e-05 deg
i 11.21350575363885 5.8406e-06 deg
  Orbit Determination Parameters
   # obs. used (total)      1496  
   data-arc span      7931 days (21.71 yr)  
   first obs. used      1997-10-07  
   last obs. used      2019-06-25  
   planetary ephem.      DE431  
   SB-pert. ephem.      SB431-N16  
   condition code      0  
   norm. resid. RMS      .47829  
   source      ORB  
   producer      Otto Matic  
   solution date      2020-Feb-23 10:31:31  

Additional Information
 Jupiter MOID = 2.38769 au 
 T_jup = 3.431 
Orbit Covariance (6×6)
  e q tp node peri i
e 4.581789790864334E-15 -1.152666704780893E-14 1.652618180494288E-11 -1.794598590648459E-14 4.329090555073241E-12 -1.377695024656246E-14
q -1.152666704780893E-14 2.91141257534124E-14 -4.222042163478273E-11 4.50593903508446E-14 -1.105948440285613E-11 3.52726971775747E-14
tp 1.652618180494288E-11 -4.222042163478273E-11 1.463676501304906E-7 -4.744206070354651E-11 3.733990792571892E-8 -6.401324240799825E-11
node -1.794598590648459E-14 4.50593903508446E-14 -4.744206070354651E-11 4.509268070479414E-10 -4.543507384382132E-10 -3.785748766337245E-11
peri 4.329090555073241E-12 -1.105948440285613E-11 3.733990792571892E-8 -4.543507384382132E-10 9.974644487052401E-9 2.062574954285198E-11
i -1.377695024656246E-14 3.52726971775747E-14 -6.401324240799825E-11 -3.785748766337245E-11 2.062574954285198E-11 3.411213686218664E-11

Ephemeris | Orbit Diagram | Orbital Elements | Mission Design | Physical Parameters | Discovery Circumstances ]

Physical Parameter Table
Parameter Symbol Value Units Sigma Reference Notes
absolute magnitude H 14.4   n/a MPO436152  
diameter diameter 3.395 km 0.411 urn:nasa:pds:neowise_diameters_albedos::2.0[mainbelt] (http://adsabs.harvard.edu/abs/2011ApJ...741...68M)  
geometric albedo albedo 0.320   0.073 urn:nasa:pds:neowise_diameters_albedos::2.0[mainbelt] (http://adsabs.harvard.edu/abs/2011ApJ...741...68M)  

52607 (1997 TX16)          Discovered 1997-Oct-07 by Viscome, G. R. at Rand
Reference: 20030216/Numbers.arcLast Updated: 2004-04-19
Ephemeris | Orbit Diagram | Orbital Elements | Mission Design | Physical Parameters | Discovery Circumstances ]
ABOUT SSD CREDITS/AWARDS PRIVACY/COPYRIGHT GLOSSARY LINKS
FirstGov 2020-May-29 04:28 UT
(server date/time)  
NASA Home Page
Site Manager:   Ryan S. Park
Webmaster  Alan B. Chamberlin